Location: Stokes Fall Starparty
(41.2298°N, 74.7506°W)
Time: 15:20:13
(UTC-04:00)

Daily predictions for brighter satellites

Satellite Brightness Start Highest point End
(mag) Time Altitude Azimuth Time Altitude Azimuth Time Altitude Azimuth
NOAA 11 4.2 20:58:28 10° SSE 21:03:53 81° ENE 21:09:20 10° N
Cosmos 1470 2.8 21:00:27 10° N 21:04:21 86° W 21:08:15 10° S
Cosmos 1844 Rocket 3.9 21:02:32 10° SSE 21:06:39 21° E 21:10:47 10° NE
ATLAS 2AS CENTAUR R/B 3.6 21:05:17 10° S 21:12:04 35° ESE 21:19:08 10° NE
Meteor 2-5 Rocket 4.1 21:11:42 10° S 21:17:27 53° E 21:23:12 10° NNE
Cosmos 1607 4.3 21:18:57 10° NW 21:25:18 69° WSW 21:31:29 10° SSE
Cosmos 972 4.4 21:22:13 10° SSW 21:27:12 88° WNW 21:32:07 10° NNE
Lacrosse 5 1.9 21:25:10 10° SSW 21:30:05 54° SE 21:35:01 10° NE
ERS-1 Rocket 3.7 21:26:47 11° SE 21:31:17 38° ENE 21:35:56 10° N
Cosmos 1238 Rocket 2.9 21:29:14 11° SSE 21:31:47 31° E 21:34:29 10° NNE
Iridium 4 Rocket 3.7 21:27:48 10° S 21:33:30 70° E 21:38:48 10° N
Cosmos 2263 Rocket 3.4 21:31:37 10° SW 21:37:05 47° WNW 21:42:33 10° NNE
Cosmos 1048 Rocket 4.0 21:33:15 10° S 21:38:30 71° ESE 21:43:52 10° NNE
Cosmos-2242 3.7 21:34:36 10° N 21:38:44 38° ENE 21:42:03 15° SE
USA 215 4.0 21:37:52 10° SSE 21:44:02 44° SW 21:50:16 10° WNW
Meteor 1-16 Rocket 4.4 21:40:22 10° NNW 21:45:54 76° W 21:51:35 10° S
GENESIS II 4.1 21:43:38 10° SSW 21:47:28 69° ESE 21:51:23 10° NE
Cosmos 1932 4.5 21:41:19 10° NW 21:47:33 82° WSW 21:52:53 14° SSE
Cosmos 2084 4.0 21:44:26 10° NNW 21:48:05 39° NE 21:50:47 16° ESE
SL-8 R/B 4.0 21:45:58 10° SSW 21:50:32 44° SE 21:55:08 10° ENE
OAO 3 Rocket 3.8 21:46:29 10° WSW 21:51:04 39° S 21:54:45 15° ESE
Cosmos 1953 Rocket 3.5 21:50:22 10° S 21:54:42 83° E 21:59:06 10° N
Resurs 01 Rocket 3.8 21:51:36 10° SSW 21:55:07 23° W 21:58:40 10° NW
In-Cosmos 22 4.2 21:49:54 10° S 21:55:24 85° E 22:01:06 10° N
Cosmos 1315 Rocket 3.0 21:53:06 10° SSW 21:57:08 74° W 22:01:14 10° N
Cosmos 1452 Rocket 4.4 21:54:02 10° NNW 21:59:05 46° WSW 22:04:05 10° S
Cosmos 1340 4.2 21:56:27 10° NNE 21:59:31 23° ENE 22:01:04 18° ESE
Cosmos 1758 Rocket 3.9 21:55:56 10° SSW 22:00:22 69° W 22:04:48 10° N
Helios 1A 3.7 21:59:46 20° SE 22:02:13 40° ENE 22:06:10 10° N
SL-08 RB Rocket 3.9 22:03:46 14° S 22:07:46 71° WSW 22:12:27 10° NNW
MetOp-B 4.4 22:05:20 13° S 22:10:08 70° WSW 22:15:30 10° NNW
Cosmos 1674 2.7 22:08:26 20° S 22:10:52 62° E 22:14:40 10° NNE
Landsat 7 4.3 22:11:37 22° SE 22:14:20 47° ENE 22:18:55 10° N
Timation 1 Rocket 4.3 22:09:12 10° SSW 22:15:06 68° ESE 22:21:02 10° NNE
SPOT 1/Viking Rocket 3.7 22:12:48 22° SSE 22:16:04 62° ENE 22:21:10 10° N
H-2A R/B 2.5 22:11:51 13° S 22:16:28 61° W 22:21:49 10° NNW
Helios 1B rocket 3.1 22:12:47 10° NNE 22:16:36 36° E 22:18:01 27° SE
Cosmos 1437 3.1 22:13:54 10° NNW 22:17:01 60° W 22:18:41 24° S
ATLAS 3B CENTAUR R/B 4.4 22:06:54 10° SW 22:19:02 24° S 22:22:18 20° SSE
Cosmos 1110 Rocket 4.0 22:14:25 10° NNW 22:19:36 67° ENE 22:22:33 25° SE
CSL-04 DEB 4.4 22:17:36 23° S 22:19:58 76° WSW 22:23:55 10° NNW
Cosmos 1745 Rocket 4.3 22:17:40 10° N 22:23:53 54° ENE 22:27:33 24° SE
Cosmos 2278 Rocket 3.0 22:23:34 24° SE 22:25:30 30° ESE 22:30:24 10° NE
Cosmos 2221 3.9 22:24:25 10° NNE 22:28:00 25° ENE 22:29:15 22° E
SL-08 R/B 4.4 22:25:51 10° N 22:32:01 79° E 22:35:55 24° SSE
DMSP B5D2-2 4.2 22:27:46 10° N 22:33:02 79° WNW 22:37:55 12° SSW
Terra 2.3 22:31:36 28° SE 22:33:42 48° ENE 22:38:17 10° N
COSMOS 2406 3.3 22:28:40 10° NNW 22:34:26 69° ENE 22:37:28 29° SE
Cosmos 921 Rocket 3.1 22:30:28 10° NNW 22:34:57 77° WSW 22:37:08 30° S
Cosmos 1331 Rocket 3.9 22:29:47 10° NNW 22:35:00 82° ENE 22:37:39 30° SSE
Cosmos 1726 2.0 22:31:53 10° N 22:35:38 81° E 22:36:55 40° SSE
USA 238 DEB 3.8 22:28:30 10° NNW 22:35:40 78° NE 22:40:07 26° SE
USA 238 3.8 22:28:36 10° NNW 22:35:47 77° NE 22:40:13 26° SE
SL-14 R/B 3.8 22:35:37 35° ESE 22:36:17 38° E 22:39:55 10° NNE
Cosmos 1346 Rocket 3.8 22:33:29 10° NNW 22:37:18 43° W 22:39:41 20° SSW
Meteor 2-10 4.1 22:32:13 10° N 22:37:38 76° E 22:40:34 29° SSE
ATLAS 3B R/B 2.8 22:32:36 10° NNW 22:39:11 62° NE 22:43:03 25° SE
Spot 1 4.4 22:38:44 34° SE 22:40:21 55° ENE 22:44:47 10° N
Cosmos 494 Rocket 4.1 22:38:09 10° SSW 22:43:23 76° WNW 22:48:40 10° NNE
Cosmos 1844 3.9 22:40:55 10° SSW 22:46:35 76° WNW 22:52:23 10° NNE
NOSS 3-2 (A) 4.2 22:41:47 10° NNW 22:49:18 65° NE 22:54:21 25° SE
KORONAS-FOTON 4.4 22:47:23 23° SSW 22:49:36 56° W 22:53:28 10° N
S3M 4.0 22:45:02 19° S 22:49:49 85° W 22:56:16 10° N
Meteor 2-13 Rocket 4.4 22:43:58 10° N 22:50:04 77° E 22:53:09 31° SSE
Cosmos 1844 Rocket 3.4 22:44:33 10° SW 22:50:05 54° WNW 22:55:39 10° NNE
CARTOSAT-1 3.5 22:53:07 41° SSE 22:54:34 89° WSW 22:58:56 10° NNW
CZ-2C R/B 3.4 22:53:48 33° SSE 22:56:30 70° ENE 23:02:16 10° N
Cosmos 1709 Rocket 4.4 22:51:30 10° N 22:57:31 49° ENE 23:00:00 32° SE
Cosmos 1302 Rocket 4.0 22:56:11 10° NNW 23:01:31 78° ENE 23:03:25 40° SSE
SPOT 5 3.7 22:59:19 24° SSW 23:02:01 46° W 23:07:03 10° NNW
Cosmos 2251 Rocket 3.4 22:59:38 28° SSW 23:02:29 81° ESE 23:07:50 10° NNE
ATLAS 2AS CENTAUR R/B 3.6 22:55:00 10° SW 23:02:44 60° NW 23:10:47 10° NNE
Cosmos 1461 3.3 23:03:09 47° SSE 23:03:53 52° ESE 23:08:31 10° NE
YAOGAN 11 4.2 23:03:10 46° SE 23:04:27 71° ENE 23:09:01 10° N
Cosmos 220 Rocket 4.0 23:04:00 32° SSW 23:05:51 75° WNW 23:10:05 10° NNE
RESURS DK-1 4.4 23:12:25 16° ENE 23:12:25 16° ENE 23:13:49 10° ENE
ATLAS 5 CENTAUR R/B 2.4 23:13:17 34° E 23:13:17 34° E 23:17:01 10° NE
NOSS 3-2 (C) 4.2 23:05:35 10° NNW 23:13:08 67° NE 23:17:42 29° SE
IGS 5A 4.0 23:12:05 39° SSW 23:13:12 51° W 23:17:16 10° NNW
Lacrosse 5 3.7 23:08:46 10° W 23:13:16 32° NNW 23:17:48 10° NNE
Cosmos 2082 Rocket 3.4 23:08:13 10° N 23:13:22 33° ENE 23:15:51 23° E
Cosmos 1833 Rocket 3.5 23:15:27 10° N 23:20:46 41° ENE 23:22:51 30° ESE
Cosmos 1076 Rocket 3.4 23:21:29 63° SE 23:21:52 68° E 23:26:05 10° NNE
Cosmos 1842 Rocket 4.5 23:17:49 10° NNW 23:21:54 41° W 23:23:16 31° SW
Meteor 1-29 4.1 23:20:17 10° N 23:23:29 39° WNW 23:24:12 34° WSW
Cosmos 2315 Rocket 3.9 23:24:28 39° S 23:26:59 79° E 23:33:21 10° N
SL-8 R/B 4.4 23:28:19 10° W 23:33:03 54° NNW 23:37:48 10° ENE
SL-08 ROCKET BODY 4.4 23:27:08 10° N 23:33:21 76° E 23:35:21 45° SSE
CZ-2C R/B 2.6 23:28:29 10° NNE 23:33:57 84° WNW 23:35:50 42° SSW
OAO 3 Rocket 4.4 23:29:40 10° WSW 23:32:33 28° SW 23:32:33 28° SW
H-2A R/B 4.2 23:33:27 13° ENE 23:34:14 14° ENE 23:36:16 10° NNE
Aureole 3 Rocket 4.3 23:30:26 34° S 23:34:15 80° E 23:40:18 10° N
Cosmos 1626 2.1 23:35:20 76° WNW 23:35:20 76° WNW 23:39:02 10° N
Meteor 2-19 Rocket 4.4 23:31:36 10° N 23:37:46 72° E 23:39:37 46° SSE
NOSS 2-2 (E) 3.2 23:39:41 77° E 23:39:41 77° E 23:43:52 10° NE
NOSS 3-4 (A) 3.4 23:35:38 23° SW 23:39:41 86° NW 23:46:08 10° NE
NOSS 3-4 (C) 3.4 23:35:49 24° SW 23:39:46 86° WNW 23:46:13 10° NE
Mayak 0.2 23:37:35 10° NE 23:40:22 25° ENE 23:40:22 25° ENE
Cosmos 1328 3.8 23:41:24 73° W 23:41:31 73° W 23:45:29 10° N
Okean 3 Rocket 3.4 23:42:55 69° SSW 23:43:23 81° W 23:47:47 10° N
Cosmos 1455 2.8 23:42:52 10° N 23:46:06 45° NE 23:46:06 45° NE
Cosmos 1300 4.1 23:43:18 10° NNW 23:46:38 29° W 23:46:59 29° WSW
Meteor 1-11 4.2 23:45:43 52° SSE 23:47:04 72° E 23:52:51 10° NNE
CENTAUR R/B 3.5 23:41:31 10° NNW 23:49:22 60° NE 23:54:13 27° ESE
Cosmos 2151 4.1 23:52:47 32° ENE 23:52:47 32° ENE 23:56:06 10° NNE
ADEOS Rocket 3.6 23:46:49 10° NNE 23:52:27 42° E 23:53:30 39° ESE
Cosmos 2228 Rocket 4.5 23:49:21 10° NNE 23:53:10 27° ENE 23:53:23 26° E
